Weather History for Manhattan, KS

Change the Weather History Date:

Friday, October 25, 2013

  Actual Average Record
Temperature  
Mean Temperature 43 °F 52 °F  
Max Temperature 60 °F 65 °F 79 °F (2011)
Min Temperature 26 °F 39 °F 25 °F (2005)
Degree Days  
Heating Degree Days 22 13  
Month to date heating degree days 251 239  
Since 1 July heating degree days 271 309  
Cooling Degree Days 0 0  
Month to date cooling degree days 33 21  
Year to date cooling degree days 1513 1358  
Moisture  
Dew Point 29 °F    
Average Humidity 64    
Maximum Humidity 100    
Minimum Humidity 27    
Precipitation  
Precipitation 0.00 in 0.07 in 1.24 in (2006)
Month to date precipitation 2.63 1.86  
Year to date precipitation 26.95 29.57  
Sea Level Pressure  
Sea Level Pressure 30.34 in    
Wind  
Wind Speed 6 mph (SSW)    
Max Wind Speed 21 mph    
Max Gust Speed 25 mph    
Visibility 9 miles    
Events      
T = Trace of Precipitation, MM = Missing Value Source: NWS Daily Summary

Daily Weather History Graph

Daily Weather History Graph

Search for Another Location

Airport:

Trip Planner

Search our weather history database for the weather conditions in past years. The results will help you decide how hot, cold, wet, or windy it might be!

Date:

Astronomy

Oct. 25, 2013 Rise Set
Actual Time 7:47 AM CDT 6:33 PM CDT
Civil Twilight 7:19 AM CDT 7:01 PM CDT
Nautical Twilight 6:48 AM CDT 7:32 PM CDT
Astronomical Twilight 6:17 AM CDT 8:03 PM CDT
Moon 11:55 PM CDT (10/25) 1:27 PM CDT (10/25)
Length of Visible Light 11h 41m
Length of Day
10h 46m
Waning Gibbous, 62% of the Moon is Illuminated
Oct 25
Waning Gibbous
Oct 26
Last Quarter
Nov 3
New
Nov 9
First Quarter
Nov 17
Full

Hourly Weather History & Observations

Time (CDT) Temp. Windchill Dew Point Humidity Pressure Visibility Wind Dir Wind Speed Gust Speed Precip Events Conditions
12:52 AM 30.0 °F - 28.9 °F 96% 30.47 in 10.0 mi Calm Calm - N/A   Clear
1:52 AM 30.0 °F - 28.9 °F 96% 30.47 in 10.0 mi Calm Calm - N/A   Clear
2:52 AM 28.0 °F - 28.0 °F 100% 30.48 in 6.0 mi Calm Calm - N/A   Clear
3:52 AM 27.0 °F - 27.0 °F 100% 30.47 in 9.0 mi Calm Calm - N/A   Clear
4:52 AM 28.0 °F - 27.0 °F 96% 30.47 in 7.0 mi Calm Calm - N/A   Clear
5:52 AM 28.0 °F - 27.0 °F 96% 30.47 in 10.0 mi Calm Calm - N/A   Clear
6:52 AM 26.1 °F - 26.1 °F 100% 30.47 in 8.0 mi Calm Calm - N/A   Clear
7:52 AM 26.1 °F - 25.0 °F 96% 30.47 in 8.0 mi Calm Calm - N/A   Clear
8:52 AM 30.9 °F - 28.9 °F 92% 30.48 in 10.0 mi Calm Calm - N/A   Clear
9:52 AM 42.1 °F 37.7 °F 33.1 °F 70% 30.46 in 6.0 mi SSW 6.9 mph - N/A   Haze
10:52 AM 48.9 °F - 30.0 °F 48% 30.44 in 10.0 mi SSW 10.4 mph - N/A   Partly Cloudy
11:52 AM 53.1 °F - 28.9 °F 40% 30.42 in 10.0 mi SSW 12.7 mph 19.6 mph N/A   Clear
1:52 PM 57.9 °F - 26.1 °F 30% 30.32 in 10.0 mi South 13.8 mph 19.6 mph N/A   Clear
2:52 PM 60.1 °F - 27.0 °F 28% 30.28 in 10.0 mi SSW 13.8 mph 20.7 mph N/A   Overcast
3:52 PM 59.0 °F - 27.0 °F 29% 30.25 in 10.0 mi SSW 13.8 mph - N/A   Mostly Cloudy
4:52 PM 59.0 °F - 26.1 °F 28% 30.23 in 10.0 mi South 15.0 mph 21.9 mph N/A   Partly Cloudy
5:52 PM 57.0 °F - 28.0 °F 33% 30.20 in 10.0 mi SSW 11.5 mph 19.6 mph N/A   Clear
6:52 PM 52.0 °F - 28.0 °F 40% 30.19 in 10.0 mi South 4.6 mph - N/A   Clear
7:52 PM 48.0 °F - 33.1 °F 56% 30.20 in 10.0 mi Calm Calm - N/A   Mostly Cloudy
8:52 PM 51.1 °F - 30.9 °F 46% 30.19 in 10.0 mi South 3.5 mph - N/A   Overcast
9:52 PM 44.1 °F 41.5 °F 33.1 °F 65% 30.17 in 10.0 mi SW 4.6 mph - N/A   Clear
10:52 PM 44.1 °F 41.5 °F 35.1 °F 71% 30.16 in 10.0 mi SW 4.6 mph - N/A   Clear
11:52 PM 46.0 °F 41.4 °F 37.0 °F 71% 30.14 in 10.0 mi SW 9.2 mph - N/A   Clear